User: anonymous   Login
Location: Pcim
(49.7500°N, 19.9670°E)
Time: 15:16:05
(UTC+02:00)
Language:

Oscar 11 - Orbit

View from above orbital plane
View from above orbital plane
View from above satellite
View from above satellite

Ground track
Ground track

The orbit data is extracted from the following two-line orbital elements,

1 14781U 84021B   24103.66334672  .00001919  00000-0  22370-3 0  9990
2 14781  97.6998  74.9419 0006620 299.7335  60.3222 14.86331268138758
Epoch (UTC): 12 April 2024 15:55:13
Eccentricity: 0.0006620
inclination: 97.6998°
perigee height: 605 km
apogee height: 614 km
right ascension of ascending node: 74.9419°
argument of perigee: 299.7335°
revolutions per day: 14.86331268
mean anomaly at epoch: 60.3222°
orbit number at epoch: 13875

The dashed part of the orbit path shows where the satellite is in the earth's shadow,  

DLR